Location: Colle San Luigi
(43.5500°N, 13.4167°E)
Time: 02:02:39
(UTC+00:00)

COSMOS 2406 - Pass Details

Date: 09 April 2020
Orbit: 842 x 865 km, 71.0° (Epoch: 29 May)

Event Time Altitude Azimuth Distance (km) Brightness Sun altitude
Exits shadow 20:55:05 31° 243° (WSW) 1,448 4.4 -30.3°
Maximum altitude 20:57:30 50° 300° (WNW) 1,072 3.9 -30.6°
Drops below altitude 10° 21:03:03 10° 16° (NNE) 2,490 6.0 -31.2°
Sets 21:05:36 0° 22° (NNE) 3,433 6.8 -31.5°
